Location: Wanzleben
(52.0609°N, 11.4408°E)
Time: 18:51:26
(UTC+00:00)

SPOT 5 - Pass Details

Date: 18 September 2020
Orbit: 623 x 814 km, 98.3° (Epoch: 22 October)

Event Time Altitude Azimuth Distance (km) Brightness Sun altitude
Exits shadow 20:40:08 70° 16° (NNE) 840 3.1 -28.1°
Drops below altitude 10° 20:44:56 10° 347° (NNW) 2,398 6.3 -28.6°
Sets 20:47:19 0° 347° (NNW) 3,345 7.2 -28.9°
